Newark Heath, OH

2:08 AM EDT on April 29, 2017 (GMT -0400)
Newark Heath

Weather History for KVTA - October, 2012

Change the Weather History Date:

Thursday, October 18, 2012

  Actual Average Record
Temperature  
Mean Temperature 54 °F -  
Max Temperature 63 °F 62 °F 86 °F (1938)
Min Temperature 46 °F 40 °F 22 °F (1939)
Degree Days  
Heating Degree Days 11    
Growing Degree Days 4 (Base 50)    
Moisture  
Dew Point 43 °F    
Average Humidity 59    
Maximum Humidity 83    
Minimum Humidity 32    
Precipitation  
Precipitation 0.07 in - - ()
Sea Level Pressure  
Sea Level Pressure 29.65 in    
Wind  
Wind Speed 10 mph (South)    
Max Wind Speed 26 mph    
Max Gust Speed 37 mph    
Visibility 10 miles    
Events Rain , Thunderstorm    
Averages and records for this station are not official NWS values.
T = Trace of Precipitation, MM = Missing Value Source: NWS Daily Summary

Daily Weather History Graph

Daily Weather History Graph

Search for Another Location

Airport or City:

Trip Planner

Search our weather history database for the weather conditions in past years. The results will help you decide how hot, cold, wet, or windy it might be!

Date:

Astronomy

Oct. 18, 2012 Rise Set
Actual Time 7:44 AM EDT 6:45 PM EDT
Civil Twilight 7:16 AM EDT 7:12 PM EDT
Nautical Twilight 6:45 AM EDT 7:43 PM EDT
Astronomical Twilight 6:13 AM EDT 8:15 PM EDT
Moon 11:24 AM EDT (10/18) 9:18 PM EDT (10/18)
Length of Visible Light 11h 55m
Length of Day
11h 01m
Waxing Crescent, 14% of the Moon is Illuminated
Oct 18
Waxing Crescent
Oct 21
First Quarter
Oct 29
Full
Nov 6
Last Quarter
Nov 13
New

Hourly Weather History & Observations

Time (EDT) Temp. Dew Point Humidity Pressure Visibility Wind Dir Wind Speed Gust Speed Precip Events Conditions
12:54 AM 61.0 °F 46.9 °F 60% 29.65 in 10.0 mi SE 5.8 mph - N/A   Clear
1:54 AM 61.0 °F 43.0 °F 52% 29.64 in 10.0 mi SSE 8.1 mph - N/A   Clear
2:54 AM 62.1 °F 43.0 °F 50% 29.62 in 10.0 mi SSE 10.4 mph - N/A   Mostly Cloudy
3:54 AM 62.1 °F 44.1 °F 52% 29.60 in 10.0 mi SSE 10.4 mph 20.7 mph N/A   Partly Cloudy
4:54 AM 62.1 °F 44.1 °F 52% 29.59 in 10.0 mi SSE 10.4 mph 18.4 mph N/A   Clear
5:54 AM 61.0 °F 44.1 °F 54% 29.57 in 10.0 mi SSE 9.2 mph 18.4 mph N/A   Scattered Clouds
6:54 AM 61.0 °F 44.1 °F 54% 29.58 in 10.0 mi South 13.8 mph 21.9 mph N/A   Mostly Cloudy
7:54 AM 61.0 °F 45.0 °F 56% 29.54 in 10.0 mi SSE 12.7 mph 17.3 mph 0.00 in Rain Light Rain
8:54 AM 60.1 °F 46.9 °F 62% 29.57 in 10.0 mi South 12.7 mph 20.7 mph 0.00 in   Mostly Cloudy
9:54 AM 61.0 °F 46.9 °F 60% 29.59 in 10.0 mi South 13.8 mph 23.0 mph 0.00 in   Overcast
10:42 AM 62.6 °F 48.2 °F 59% 29.59 in 10.0 mi South 13.8 mph 24.2 mph 0.00 in Rain , Thunderstorm Light Rain
10:54 AM 57.9 °F 48.0 °F 70% 29.62 in 5.0 mi WSW 26.5 mph 36.8 mph 0.02 in Rain Light Rain
11:02 AM 53.6 °F 48.2 °F 82% 29.63 in 4.0 mi West 21.9 mph 33.4 mph 0.01 in Rain Light Rain
11:54 AM 54.0 °F 48.9 °F 83% 29.65 in 10.0 mi SW 6.9 mph - 0.05 in Rain Light Rain
12:54 PM 55.9 °F 48.9 °F 77% 29.69 in 10.0 mi SSW 10.4 mph - 0.00 in   Overcast
1:54 PM 59.0 °F 45.0 °F 60% 29.66 in 10.0 mi SSW 13.8 mph 18.4 mph 0.00 in   Mostly Cloudy
2:54 PM 61.0 °F 39.9 °F 46% 29.66 in 10.0 mi WSW 13.8 mph 21.9 mph N/A   Mostly Cloudy
3:54 PM 61.0 °F 33.1 °F 35% 29.66 in 10.0 mi SW 11.5 mph - N/A   Overcast
4:54 PM 62.1 °F 32.0 °F 32% 29.67 in 10.0 mi WSW 11.5 mph - N/A   Overcast
5:54 PM 62.1 °F 32.0 °F 32% 29.68 in 10.0 mi South 3.5 mph - N/A   Partly Cloudy
6:54 PM 57.9 °F 36.0 °F 44% 29.70 in 10.0 mi Calm Calm - N/A   Clear
7:54 PM 48.0 °F 37.0 °F 66% 29.73 in 10.0 mi Calm Calm - N/A   Clear
8:54 PM 50.0 °F 37.9 °F 63% 29.76 in 10.0 mi South 5.8 mph - N/A   Clear
9:54 PM 46.0 °F 39.9 °F 79% 29.77 in 10.0 mi Calm Calm - N/A   Clear
11:54 PM 46.0 °F 41.0 °F 83% 29.74 in 10.0 mi Calm Calm - N/A   Clear